GEFSSGP_500_meanwind_108.txt.gz
Wind_Speed
4 4 4 4 4 3 4 4 4 3 3 3 3 5 6 7 7 8 9 10 11 11 12 12 14 15 15 16 16 17 18 19 19 19 20 21 21 21 22 23 23 22 23 22 21 21 21 20 18
5 5 5 5 5 4 4 3 3 4 3 3 4 5 7 8 8 8 9 10 11 12 12 13 13 14 14 15 16 17 18 19 20 21 22 23 23 24 23 24 24 24 25 24 23 22 22 21 20
7 7 6 6 7 6 5 5 5 5 3 4 5 7 8 9 8 9 10 11 12 12 11 11 11 12 12 13 14 15 16 17 19 20 21 22 23 24 25 25 25 24 25 25 24 24 23 22 22
9 9 8 8 7 6 6 5 5 4 3 4 5 7 8 9 8 9 10 10 10 10 9 9 10 10 11 12 12 13 14 15 16 17 18 20 21 22 23 24 24 24 24 25 25 25 24 23 22
11 11 10 9 9 8 8 7 4 2 3 4 6 8 9 9 9 8 9 10 9 9 9 8 9 9 10 10 10 11 12 13 14 15 16 17 18 20 21 22 23 23 24 24 25 26 26 25 24
14 13 13 11 10 10 9 6 4 3 3 4 6 8 9 9 9 8 8 8 9 9 8 8 8 9 9 9 9 10 11 12 13 14 15 16 17 17 18 19 21 22 23 24 24 25 25 25 25
16 15 14 12 12 11 9 7 6 4 4 5 6 8 9 9 8 7 7 8 8 8 8 8 8 8 9 9 10 11 11 12 13 14 14 15 16 16 17 18 20 21 22 23 24 24 24 24 24
18 16 15 14 13 12 10 8 7 6 6 7 8 8 8 8 8 8 7 7 7 7 7 7 8 8 9 10 11 12 13 13 14 14 14 15 15 15 16 17 18 20 21 22 23 23 23 23 23
19 18 16 15 14 13 10 7 6 6 6 7 8 8 8 8 7 7 7 7 7 6 6 7 7 8 9 10 11 12 13 14 14 14 15 15 15 16 16 17 17 18 19 21 22 23 24 24 24
21 19 17 16 15 13 10 8 7 7 6 7 7 8 8 7 7 7 7 7 7 5 6 6 7 8 10 11 11 12 13 14 15 15 15 16 16 16 16 16 16 17 17 19 20 22 23 23 24
22 21 19 16 14 13 10 8 6 7 7 6 7 8 8 7 7 7 7 7 6 6 6 7 8 9 10 11 12 13 14 15 16 17 17 17 16 16 16 16 16 17 17 17 18 20 22 22 23
21 20 19 16 14 13 11 9 8 7 8 8 9 9 8 7 6 6 7 7 6 6 6 7 8 9 10 11 12 13 14 15 16 17 17 17 16 16 16 15 16 16 16 16 17 18 20 21 22
21 21 19 18 15 13 12 10 9 8 8 9 9 9 8 7 5 6 6 7 6 6 7 8 9 10 11 11 13 14 15 16 17 18 18 17 17 16 16 15 15 15 15 16 16 16 18 20 21
21 20 19 18 17 14 12 10 9 8 8 8 9 8 8 7 5 5 6 6 6 7 8 8 9 10 11 12 13 14 16 17 17 18 18 17 17 16 16 15 14 13 13 14 15 16 16 18 19
22 21 19 15 13 13 12 10 9 8 8 8 9 9 7 7 6 6 6 5 6 7 8 8 10 11 12 13 14 15 17 17 18 18 18 17 17 16 16 15 14 13 13 12 13 15 16 17 18
21 20 16 15 12 11 10 9 9 8 8 8 8 8 7 7 6 6 6 5 6 6 8 9 10 11 12 13 14 16 17 18 18 18 18 17 17 17 16 15 14 13 11 11 11 13 14 16 18
18 17 15 14 12 10 9 8 9 8 8 7 8 7 7 7 6 6 6 5 5 6 8 9 10 11 12 13 15 16 17 18 18 18 18 17 17 16 15 14 13 12 11 10 11 12 13 15 17
14 12 11 11 9 8 7 7 7 7 7 7 7 6 6 7 7 7 6 5 6 6 7 9 10 11 12 13 15 16 17 18 18 18 18 17 17 16 15 14 13 12 11 10 10 10 11 13 15
12 11 8 7 7 6 6 6 5 6 6 7 6 5 5 6 6 7 6 5 6 6 8 9 10 11 12 13 14 16 17 18 18 18 18 17 17 16 15 14 13 11 10 9 8 8 10 11 13
11 7 6 6 4 3 4 5 5 5 5 5 6 5 5 6 6 7 6 6 6 6 8 9 10 11 12 13 14 15 16 17 18 18 18 18 17 16 15 14 12 11 9 8 6 6 8 10 11
9 5 3 3 3 4 4 4 4 3 3 4 5 5 5 5 6 6 6 5 6 6 8 9 10 11 11 12 13 14 15 17 17 18 18 18 16 15 14 13 12 10 8 7 6 5 6 8 10
5 4 2 2 3 3 3 2 2 1 2 3 4 5 5 5 6 6 6 6 6 7 8 9 10 11 11 11 12 13 15 16 17 18 18 17 16 15 14 12 11 10 8 6 5 4 4 7 9
5 4 3 3 3 1 1 2 1 1 3 4 5 5 5 5 5 5 5 6 6 7 8 9 10 10 10 10 11 13 14 16 16 17 17 17 16 14 14 12 11 10 8 6 5 3 3 4 6
5 4 3 2 2 0 1 2 2 2 4 6 6 6 5 5 5 5 6 7 7 7 8 9 9 10 10 10 11 12 14 15 16 16 17 17 16 14 13 13 11 10 9 7 5 3 3 3 5
4 3 2 1 1 1 2 3 3 4 5 6 7 7 6 6 6 6 7 7 8 8 8 9 9 10 10 10 11 12 13 14 15 15 16 16 15 14 13 12 11 10 9 8 6 4 3 3 4
3 2 1 1 1 1 3 4 5 6 7 8 8 8 7 7 7 7 8 8 9 9 9 9 9 9 9 10 10 11 12 13 14 14 15 15 15 14 13 12 11 11 10 8 7 6 4 4 4
2 1 0 1 1 2 4 6 6 7 8 9 9 8 8 8 8 8 9 9 10 10 10 10 10 10 10 10 10 11 12 13 13 13 14 14 15 14 13 12 11 10 10 9 8 7 5 2 2
1 1 1 2 3 4 5 7 9 10 10 10 10 10 9 9 9 9 10 10 11 11 11 10 10 10 10 10 10 10 11 12 13 13 13 14 14 13 12 12 10 10 10 10 9 8 6 4 3
1 2 3 4 6 6 6 7 10 12 12 12 12 12 12 11 10 10 11 12 12 12 12 11 11 11 11 10 10 10 11 11 12 12 12 13 13 13 12 11 11 11 10 10 9 8 7 5 4
3 4 5 6 8 9 9 8 12 14 14 14 14 13 13 13 12 12 12 13 13 13 13 13 12 12 11 11 11 10 11 11 11 12 12 12 12 12 12 11 11 11 10 10 9 8 7 6 5

GEFSSGP_500_meanwind_114.txt.gz
Wind_Speed
6 5 4 4 4 3 3 3 3 2 3 3 3 4 4 5 5 6 7 7 8 9 9 10 11 11 11 12 13 13 14 14 15 15 16 17 17 18 18 18 19 20 20 19 19 19 18 18 17
7 6 5 5 4 3 3 3 3 3 3 3 4 4 4 5 6 6 7 7 8 8 9 9 10 10 10 11 12 12 13 13 14 14 15 15 16 17 18 19 20 21 21 21 21 20 20 19 18
9 7 7 6 4 2 3 3 4 3 3 4 4 4 5 6 6 7 7 8 8 8 8 8 8 9 10 10 11 11 11 12 12 13 13 14 15 16 17 19 20 20 21 22 22 22 21 20 19
11 10 9 7 6 3 3 3 3 4 4 5 5 5 5 6 6 7 7 8 8 7 7 7 8 9 9 10 10 10 10 11 11 12 13 14 14 15 16 17 18 19 20 21 21 22 21 20 19
13 12 10 9 7 5 5 3 3 4 5 6 6 6 6 7 7 7 7 7 7 7 7 7 8 8 9 9 9 10 10 11 11 12 13 13 14 15 15 16 17 18 19 19 19 20 20 20 20
15 13 12 10 9 8 7 5 5 5 5 6 6 5 6 6 6 6 6 6 7 7 7 7 7 7 8 8 9 10 10 11 11 12 13 14 14 15 15 15 16 17 18 19 19 19 20 20 20
15 15 13 11 10 9 8 7 6 6 5 6 5 5 6 6 7 6 6 6 7 7 7 7 7 7 8 8 9 10 10 11 11 12 13 14 15 15 15 16 16 16 17 18 19 19 20 20 21
17 16 14 12 11 10 9 8 8 7 6 6 5 5 6 6 7 6 6 7 8 8 7 7 7 7 8 9 9 10 10 11 12 13 13 14 15 15 15 16 16 16 17 17 18 19 20 20 20
19 17 14 12 11 10 10 11 9 8 7 7 6 5 5 6 6 6 6 7 7 7 7 7 7 7 8 9 10 10 11 12 13 13 14 15 15 16 16 16 16 16 16 16 17 18 19 19 20
19 18 17 15 13 11 11 11 10 9 8 8 7 6 6 6 6 6 6 6 6 6 7 7 7 8 8 9 10 10 11 12 13 14 15 15 16 16 17 17 16 16 16 16 16 17 18 18 19
18 18 18 16 15 12 12 12 10 10 9 8 7 6 6 6 6 6 6 6 6 6 6 6 7 8 9 9 10 10 11 13 14 15 15 16 16 17 17 17 16 16 16 16 16 17 17 18 19
19 18 17 16 15 14 12 13 11 10 9 8 7 6 6 6 6 6 6 6 6 6 6 6 7 8 9 9 10 11 12 14 15 15 16 16 16 16 16 16 16 16 15 15 16 16 17 17 18
19 18 16 14 14 13 12 12 11 11 10 9 8 7 7 7 7 7 6 6 6 6 7 7 7 8 9 9 10 12 13 14 15 16 16 16 16 16 16 16 16 15 15 15 15 15 16 17 17
20 18 16 15 15 12 12 12 12 11 9 8 8 8 8 8 8 8 7 7 7 7 7 7 8 9 9 10 11 12 14 15 16 16 16 16 16 16 16 16 16 15 14 14 14 14 15 16 16
19 18 16 15 14 13 13 11 10 10 9 8 8 8 8 9 8 8 8 7 7 7 7 7 8 9 9 10 11 12 14 15 16 16 16 16 17 16 16 16 15 15 14 14 13 13 14 14 15
18 17 16 15 14 13 12 10 9 10 9 9 8 8 9 9 9 9 9 8 8 7 7 8 8 9 9 10 11 12 14 15 15 16 16 16 17 16 16 16 15 14 13 13 13 12 12 13 14
17 16 15 13 12 10 10 9 7 7 8 8 8 9 9 9 9 9 9 8 8 7 7 8 8 9 9 10 11 12 13 14 15 16 16 17 16 16 16 15 15 13 13 12 11 11 11 11 13
15 13 12 10 10 8 8 7 6 6 6 6 7 8 9 9 9 9 9 9 8 8 7 8 8 9 10 10 11 12 13 14 15 16 16 17 16 16 15 15 14 13 12 11 11 10 10 10 11
13 11 10 9 8 7 6 5 5 5 6 7 7 8 8 8 9 9 8 8 8 8 7 7 8 9 10 11 11 12 13 14 15 16 16 17 16 16 15 15 14 13 12 11 10 10 10 10 10
11 9 8 8 7 6 5 4 4 5 5 6 6 7 8 8 8 8 8 8 8 8 7 8 8 9 10 10 11 12 13 14 15 16 16 17 16 16 15 15 13 12 11 10 10 10 9 10 10
10 9 8 7 6 6 5 4 4 4 4 5 6 8 8 8 8 8 7 7 8 8 8 8 8 9 9 10 11 12 12 13 14 15 16 17 17 16 15 14 13 11 10 10 9 8 8 8 9
10 9 7 7 6 5 4 3 3 3 3 5 6 7 8 8 8 7 7 8 8 8 8 8 8 9 9 10 11 11 12 13 14 15 16 17 17 16 15 14 13 11 10 10 9 8 7 7 7
8 8 7 6 6 5 4 3 2 3 3 4 6 6 7 7 8 7 8 8 8 8 8 8 9 9 9 10 11 11 12 13 14 15 16 17 17 17 15 14 13 12 10 9 8 8 6 6 6
8 8 7 6 5 5 3 2 2 2 3 4 5 5 6 7 7 7 7 8 8 8 8 9 9 10 9 10 11 11 12 13 13 14 15 17 17 17 15 14 13 12 10 9 8 7 6 4 5
8 7 6 6 5 3 2 2 2 2 3 4 5 6 6 7 8 7 8 8 9 9 9 9 10 10 10 10 11 11 12 12 13 14 15 16 17 16 15 14 12 11 10 9 8 7 5 4 4
7 6 5 4 3 3 2 1 2 3 3 4 5 6 6 7 8 8 8 9 9 9 10 10 10 10 11 11 11 11 12 12 13 14 14 15 16 15 15 14 12 11 10 9 8 7 5 4 4
5 4 3 2 2 2 1 1 2 4 4 5 6 6 7 8 8 9 9 9 10 10 10 11 11 11 12 12 12 12 12 12 13 13 14 14 15 15 14 14 12 11 9 9 8 7 6 5 4
4 3 1 1 1 1 2 2 3 4 6 6 7 7 8 8 9 9 10 10 10 11 11 12 12 13 13 13 13 13 13 12 13 13 13 14 14 14 14 13 12 11 10 9 8 7 6 5 4
3 1 1 1 2 2 3 4 5 6 6 7 7 8 8 9 9 10 10 11 11 12 12 13 13 14 14 14 14 14 14 13 13 13 14 14 14 13 13 13 12 11 10 9 9 8 7 6 5
2 2 2 3 3 4 5 5 7 7 8 8 9 9 10 10 11 11 12 12 13 13 14 14 14 15 15 15 15 15 15 15 14 14 14 14 13 13 13 12 12 11 10 9 9 8 7 6 5

GEFSSGP_500_meanwind_120.txt.gz
Wind_Speed
5 3 1 1 0 1 3 3 3 3 4 4 4 4 3 3 4 5 5 5 5 5 5 6 6 6 6 7 8 9 10 10 10 10 10 10 10 11 11 12 13 14 15 15 15 15 14 14 13
7 4 2 1 1 1 2 3 3 4 4 4 3 3 3 3 4 4 4 5 5 5 5 5 5 6 6 7 8 9 10 10 10 10 10 10 10 10 11 12 12 13 15 15 16 16 16 15 15
8 6 4 3 2 1 2 3 3 4 4 4 3 3 3 4 4 4 4 4 4 4 5 5 5 6 7 8 8 9 9 9 9 9 9 10 10 11 12 12 13 13 14 15 16 16 16 16 16
10 8 7 6 4 3 1 2 4 3 3 3 3 3 4 4 4 4 3 3 4 4 4 5 6 7 7 7 8 8 8 9 9 9 10 10 11 12 12 13 13 14 14 15 15 15 16 16 16
12 10 9 7 6 5 4 3 4 3 3 3 3 4 5 4 4 3 3 3 4 4 5 5 6 6 6 7 7 8 8 9 9 10 10 10 11 12 13 13 13 13 13 14 15 15 15 16 16
14 12 10 9 8 6 5 4 5 4 4 3 3 4 4 4 3 3 3 4 4 4 5 6 6 6 6 6 7 8 9 9 9 10 11 12 12 13 13 13 13 13 13 14 14 15 15 16 16
15 14 12 10 8 7 6 6 5 5 4 4 4 4 4 4 4 4 4 4 4 5 5 5 5 6 6 7 7 8 9 9 10 11 12 13 13 13 13 13 13 14 14 14 14 14 15 16 16
14 14 13 11 10 8 7 7 6 6 5 5 5 5 5 4 5 4 4 4 5 5 5 5 6 6 7 7 8 9 9 10 11 12 13 14 14 14 14 14 14 14 14 14 14 14 14 15 15
16 15 13 12 11 9 7 7 7 7 6 6 5 5 6 6 5 5 4 5 5 6 6 5 6 7 7 8 9 9 10 11 12 13 14 14 15 15 14 14 14 14 14 14 14 14 14 15 15
17 16 14 13 12 10 8 7 7 7 7 6 6 6 6 6 6 6 5 5 5 6 6 6 7 7 8 8 9 10 10 11 12 13 14 14 15 15 14 14 15 15 15 15 15 15 15 15 16
18 17 15 13 12 11 9 8 8 7 7 7 8 8 7 7 7 7 7 6 6 7 7 7 7 8 8 9 9 10 11 12 13 14 14 14 15 15 15 15 15 15 15 15 15 15 15 16 16
17 16 15 13 11 11 10 9 9 8 8 8 8 8 8 8 7 7 7 7 8 7 7 7 8 8 8 9 10 11 12 13 13 14 14 15 15 15 15 15 15 15 15 15 15 15 15 16 16
17 16 15 13 12 11 10 10 9 9 8 8 9 10 9 7 7 8 8 8 8 8 8 8 8 8 9 9 10 11 12 13 13 14 14 15 15 15 16 16 16 16 15 15 15 15 14 15 15
17 16 14 13 12 11 9 9 9 9 10 10 10 10 10 8 8 8 8 9 8 9 9 9 8 8 9 10 11 11 12 13 14 14 15 15 15 16 16 16 16 16 16 15 15 14 14 14 14
17 16 15 14 13 11 10 9 9 10 11 10 10 9 9 9 8 8 9 9 9 9 9 9 9 9 10 11 11 12 13 13 14 14 15 15 16 16 16 16 16 16 15 15 14 13 13 13 13
17 16 15 13 13 11 11 10 10 10 10 10 9 8 8 8 7 8 9 9 9 10 10 9 9 10 10 11 12 12 13 13 14 15 15 15 16 16 16 16 16 16 15 14 13 12 12 12 12
16 15 14 13 12 11 10 9 10 10 9 8 8 7 6 6 7 8 9 9 9 10 10 9 9 10 10 11 12 12 13 13 14 14 15 15 16 16 16 16 15 15 14 13 12 12 11 11 11
15 14 13 12 11 10 9 9 10 9 8 8 7 6 6 7 7 8 9 9 9 9 10 10 9 10 10 11 11 12 13 13 14 14 14 15 15 16 16 16 15 15 14 13 12 11 11 11 11
15 13 13 12 11 9 8 9 8 7 6 6 5 5 6 6 6 7 8 8 9 9 9 10 10 10 10 11 11 12 13 13 13 14 14 15 15 16 16 16 16 15 14 12 11 10 10 10 10
14 12 12 11 10 9 8 7 7 6 5 5 6 6 5 5 6 7 7 8 8 9 9 9 9 10 10 11 11 12 13 13 13 14 14 15 16 16 16 16 15 14 13 12 11 10 9 9 9
13 11 10 9 9 8 8 7 6 5 4 4 5 6 5 5 5 6 7 8 8 9 9 9 10 10 11 11 11 12 13 13 13 14 15 15 16 16 17 16 15 14 13 12 10 9 9 9 8
12 10 10 9 9 8 8 6 5 4 3 4 4 4 5 5 5 6 7 7 8 9 9 9 10 11 11 11 11 12 13 13 14 14 15 15 16 16 17 16 16 15 13 12 11 10 8 8 8
11 10 10 9 9 8 8 6 4 3 3 3 3 4 4 5 5 6 6 7 8 9 9 9 10 11 11 11 12 13 13 14 14 15 15 16 16 16 17 17 16 15 13 12 11 9 8 7 7
11 11 9 9 8 8 7 6 4 3 3 3 4 4 4 5 6 6 6 7 8 8 9 10 10 11 12 12 12 13 14 14 15 15 16 16 16 17 17 17 16 14 13 12 11 9 8 7 6
12 11 10 9 8 8 7 5 4 3 2 3 4 4 5 5 6 6 7 7 8 9 9 10 11 11 12 12 13 13 14 15 15 16 16 16 16 16 16 16 15 14 13 12 11 9 8 7 6
11 11 11 9 8 7 6 5 4 3 3 3 4 4 5 6 6 7 7 8 8 9 10 11 12 12 13 13 14 14 14 15 16 16 16 17 16 16 16 16 15 14 13 12 11 10 8 7 7
10 9 8 8 7 5 5 4 4 3 4 4 5 5 5 6 6 7 8 8 9 10 11 12 13 13 13 14 15 15 15 15 16 16 17 17 17 16 16 16 15 14 13 12 11 10 9 8 8
8 7 7 6 5 4 4 5 4 5 4 5 5 6 7 7 7 8 8 8 9 10 11 13 13 14 14 15 16 16 16 17 17 17 17 17 17 17 17 16 15 15 14 13 12 11 10 9 8
6 5 4 4 4 4 4 5 4 5 5 6 6 6 7 8 8 9 9 10 10 11 12 13 14 14 15 16 17 17 18 18 18 18 18 18 18 18 17 17 16 16 15 14 13 12 10 9 9
5 4 4 3 3 3 4 4 4 5 6 6 7 8 9 9 10 10 11 12 12 13 14 15 15 16 17 17 18 18 19 19 19 19 20 20 19 19 18 18 17 16 16 15 14 13 11 10 9

GEFSSGP_500_meanwind_126.txt.gz
Wind_Speed
6 4 1 1 1 1 0 1 2 3 4 5 6 6 5 5 5 5 5 5 5 5 6 6 6 6 6 7 8 8 9 9 9 10 10 10 10 10 11 11 11 11 12 13 13 14 13 13 13
7 5 4 2 1 0 0 2 2 3 4 5 6 5 5 5 5 4 5 5 5 5 6 6 6 6 7 8 8 9 9 9 9 9 9 10 10 10 11 12 12 12 12 13 13 14 14 14 14
9 7 6 4 2 2 1 1 2 3 4 4 4 3 3 4 4 5 5 5 5 6 7 7 6 7 8 8 8 8 9 9 9 9 9 10 11 11 12 12 12 12 13 13 13 13 14 14 14
11 9 7 6 4 3 3 2 2 3 3 3 3 3 3 3 4 5 5 5 5 6 6 7 6 7 7 8 8 8 9 9 9 10 10 11 12 12 12 13 13 13 13 13 13 13 13 13 13
12 11 9 7 5 3 4 4 3 3 4 4 3 3 3 4 4 5 5 5 5 6 6 7 7 7 8 8 8 8 9 10 10 10 11 12 12 13 13 13 13 13 13 13 13 13 12 13 13
13 13 11 9 8 5 4 4 4 4 4 4 4 3 4 4 4 4 5 5 5 6 7 7 7 7 8 8 9 9 10 11 11 11 12 13 13 14 14 14 14 13 13 13 13 13 12 12 13
15 13 12 11 9 7 6 5 5 4 4 5 4 4 4 4 4 4 5 5 5 6 6 7 7 7 8 8 9 9 10 11 11 12 12 13 14 14 14 14 14 14 13 13 13 13 13 13 13
16 15 13 12 10 8 7 6 6 6 5 5 5 4 4 4 5 5 5 5 6 6 7 7 7 7 8 9 9 9 11 11 12 12 13 14 14 14 14 14 14 14 14 14 14 13 13 13 13
17 15 14 13 11 8 7 7 6 6 5 5 6 5 5 5 5 5 5 5 6 7 7 7 7 8 8 9 9 10 11 12 12 13 14 14 14 14 14 14 14 14 14 14 14 14 14 13 13
16 16 15 14 12 9 8 7 6 6 7 7 6 6 6 5 5 5 6 6 7 7 7 8 8 9 9 10 10 11 12 12 13 13 14 14 15 15 15 15 14 14 14 14 15 15 14 14 14
16 15 14 12 10 9 8 8 7 7 7 6 6 6 6 6 6 6 6 7 7 7 8 8 9 9 9 10 11 12 12 13 14 14 15 15 15 15 15 15 15 14 15 15 15 15 15 14 14
17 15 13 12 11 10 9 8 7 7 7 6 6 6 7 7 7 7 7 7 8 8 8 9 9 9 10 10 11 12 13 14 14 15 15 15 15 15 15 15 15 15 15 16 16 15 15 14 14
18 15 13 13 11 11 9 8 8 8 8 7 7 8 8 8 7 7 7 7 8 8 8 8 9 9 9 10 11 12 13 14 14 15 15 15 15 15 16 16 16 16 16 16 16 15 15 14 14
17 14 13 12 11 10 9 8 9 8 8 8 8 9 9 8 7 7 7 6 7 7 8 8 9 9 9 10 11 12 13 14 14 14 15 15 15 16 16 16 16 16 16 16 15 15 15 14 13
15 13 11 11 10 9 8 7 7 7 8 9 8 8 8 8 8 7 7 6 7 7 8 9 9 9 10 10 11 12 13 14 14 14 15 15 15 16 17 17 17 16 16 16 15 15 14 13 13
15 13 12 10 9 8 8 7 6 6 7 8 8 7 7 7 7 7 6 6 7 8 8 9 9 9 10 10 11 12 12 13 14 15 15 15 16 17 17 17 17 17 17 16 15 14 14 13 12
15 13 12 10 9 9 8 7 6 5 7 7 7 6 6 6 6 6 7 7 7 7 8 8 8 8 9 10 11 11 12 13 14 15 16 16 17 18 18 18 18 17 17 16 15 14 13 13 12
14 12 11 10 9 8 8 7 6 5 6 6 6 6 6 6 5 6 6 7 7 7 7 7 8 8 9 10 10 11 12 12 13 15 16 17 17 18 18 18 18 18 17 16 15 14 13 12 11
14 12 11 9 8 8 6 6 6 5 5 6 5 5 6 5 5 5 6 6 6 6 6 7 7 8 9 10 10 10 11 12 14 15 16 17 18 18 18 18 18 18 18 16 16 15 13 12 12
13 12 9 8 8 7 5 5 5 6 6 4 4 4 4 4 4 4 5 5 6 6 6 7 7 8 9 9 10 10 11 12 14 15 16 17 18 18 18 19 19 19 18 17 16 15 13 13 11
14 13 10 8 6 6 5 4 5 5 4 3 3 4 4 4 4 4 5 5 6 6 6 6 7 8 9 10 10 10 11 13 14 15 16 17 18 18 19 19 19 19 18 17 16 15 14 13 11
13 10 8 7 7 6 4 3 4 3 3 3 3 3 4 4 4 4 5 5 5 6 6 6 7 8 9 9 10 11 12 13 14 15 16 17 18 18 19 19 19 19 18 17 16 16 14 13 12
12 10 9 8 8 7 6 4 3 3 3 3 3 3 3 3 4 4 5 5 5 6 6 6 7 9 10 10 11 12 12 13 14 15 16 17 18 18 19 19 19 19 18 17 17 16 15 13 12
11 11 10 10 10 9 5 4 3 4 4 4 3 3 3 3 4 4 4 5 5 5 6 6 7 9 10 11 11 12 13 14 14 15 16 17 18 18 19 19 19 19 18 17 17 17 15 14 12
13 12 11 11 9 7 4 6 6 6 6 5 4 4 3 3 3 4 4 4 5 5 6 6 8 9 10 11 12 12 13 14 15 16 16 17 18 18 19 19 19 18 18 18 17 16 15 14 13
13 12 11 10 8 7 7 8 7 6 6 5 5 4 4 4 4 4 5 5 5 6 6 7 8 9 11 12 12 13 14 15 16 16 17 17 18 19 19 19 19 19 19 18 17 16 15 14 13
13 9 9 9 7 6 7 7 7 6 6 5 5 5 5 5 5 5 5 5 6 7 7 8 9 10 12 13 13 14 15 16 17 17 18 18 18 19 19 19 19 19 19 19 18 17 15 14 13
11 12 8 6 6 6 7 7 6 6 6 6 5 5 5 5 6 5 5 6 7 8 8 9 10 11 12 13 14 15 16 17 18 19 19 19 19 20 20 20 20 20 20 19 18 17 16 15 13
10 11 8 7 6 5 7 7 7 6 6 6 6 6 6 6 6 6 7 7 8 9 9 10 11 12 13 14 15 16 17 18 19 20 20 20 21 21 21 21 21 21 21 20 19 18 17 16 15
10 10 10 9 8 7 8 8 7 7 7 7 8 7 7 7 7 8 8 9 10 10 11 12 12 14 15 16 17 18 18 20 21 21 22 22 23 23 23 23 22 22 22 21 20 20 19 17 16

GEFSSGP_500_meanwind_132.txt.gz
Wind_Speed
7 6 5 4 4 4 4 4 5 5 6 6 6 5 4 3 2 3 2 1 1 2 3 3 4 4 5 6 6 6 7 7 7 7 7 8 8 8 8 9 9 9 9 10 10 11 12 12 12
9 7 6 5 5 4 4 4 4 5 6 6 5 5 4 3 2 2 2 0 1 2 3 4 4 4 5 6 6 6 6 7 7 7 7 8 8 9 9 9 10 10 10 10 11 11 12 12 12
9 8 6 5 5 4 4 3 4 5 5 5 4 4 4 3 2 2 1 0 2 2 3 4 4 4 5 6 6 6 6 7 7 8 8 9 9 9 10 10 10 11 11 11 11 12 12 12 12
11 9 8 8 7 6 5 4 4 6 5 5 4 4 3 3 3 2 1 0 1 2 3 3 4 4 5 6 6 6 6 7 8 8 9 9 10 10 11 11 12 12 12 12 11 11 11 11 12
12 11 9 9 9 7 6 6 6 5 5 6 5 4 3 3 3 2 1 0 1 2 3 3 4 5 5 5 6 6 6 7 8 8 9 10 10 11 11 12 12 12 12 11 11 11 11 11 11
13 13 12 10 9 7 7 7 6 6 5 5 4 4 3 2 3 2 1 0 1 1 2 4 4 5 5 5 5 6 7 8 9 9 10 10 11 11 11 12 12 12 12 11 11 11 11 11 11
14 14 13 11 10 9 7 6 6 6 4 4 4 3 2 2 2 2 1 1 0 1 2 3 4 4 5 5 6 6 7 8 9 10 10 11 11 12 12 12 12 12 12 12 11 11 11 11 11
15 15 14 13 11 9 7 6 6 6 4 3 4 3 2 1 1 1 1 1 0 1 2 3 3 4 4 5 6 7 8 9 9 10 10 11 11 12 12 12 12 12 12 12 11 11 11 11 12
15 14 15 14 13 11 9 7 6 5 4 3 3 3 2 2 1 1 0 0 0 1 2 3 3 4 5 6 6 7 8 9 10 10 11 11 11 12 12 12 12 12 12 12 11 11 11 11 11
17 15 14 13 13 11 9 8 6 5 4 3 2 2 2 2 2 1 1 1 1 2 2 3 4 4 5 6 6 7 8 9 10 10 11 11 11 12 12 12 12 12 12 12 12 12 12 11 11
18 15 12 11 12 11 9 8 6 5 4 3 2 2 2 2 2 2 1 1 2 2 3 3 3 4 5 6 7 7 8 9 9 10 11 11 11 11 12 12 13 12 12 13 13 12 12 12 11
17 15 13 10 11 11 10 8 5 4 3 3 2 1 1 1 2 3 3 2 2 3 3 4 4 4 5 6 7 7 7 8 9 10 11 11 11 12 12 13 13 13 13 13 13 13 12 11 11
16 15 13 11 11 9 8 8 6 4 4 4 3 1 1 2 2 3 3 3 2 3 3 4 5 5 5 6 6 6 7 8 9 10 10 11 11 12 12 13 14 14 13 13 13 12 12 11 11
17 14 12 11 11 9 9 8 6 6 5 5 3 2 2 2 3 3 3 3 2 3 4 4 4 5 5 6 6 6 6 7 9 10 11 11 12 12 13 13 13 13 13 13 13 12 12 11 11
17 15 13 11 10 10 8 7 6 6 5 5 4 3 2 3 3 3 3 3 2 3 4 4 4 4 5 5 6 5 6 7 8 9 11 12 12 12 13 13 13 13 13 13 13 12 11 11 10
17 16 14 12 11 10 9 7 6 6 5 5 4 3 3 3 3 3 3 3 2 3 3 4 4 5 5 5 5 5 6 6 7 9 10 11 12 12 13 13 14 14 14 14 13 12 11 10 10
17 15 14 12 11 10 9 7 6 5 5 4 5 4 4 3 3 3 3 3 2 3 3 3 4 4 4 5 5 5 6 6 7 9 10 11 12 12 13 14 14 14 14 14 13 12 11 11 10
16 15 14 12 11 10 8 7 5 5 4 4 4 4 4 3 2 3 3 3 3 3 3 3 3 3 4 4 4 5 6 6 7 8 10 11 12 13 14 14 14 15 14 14 13 13 12 11 10
16 16 14 12 11 9 7 7 6 5 4 4 4 4 4 3 3 3 4 3 3 2 2 2 2 2 3 4 4 4 5 6 7 8 9 10 11 13 14 14 15 15 15 14 13 13 12 12 11
16 16 14 13 11 9 7 6 6 5 5 3 3 3 4 3 4 3 3 2 2 2 1 1 2 2 3 4 4 5 6 7 8 9 10 11 12 13 14 14 15 15 15 15 14 13 13 12 11
15 14 13 12 10 9 8 7 7 5 4 3 3 3 3 3 3 3 3 3 3 3 2 1 1 2 3 4 4 5 6 7 8 9 9 10 11 12 13 14 14 15 15 15 15 14 14 13 12
14 12 11 11 10 10 9 8 7 5 4 3 3 3 3 3 3 3 3 3 3 3 2 2 2 2 3 4 5 5 6 7 8 9 10 10 11 12 13 14 14 15 16 16 15 15 15 14 13
14 13 11 11 10 10 9 7 7 5 3 3 2 2 2 2 3 3 3 3 3 3 2 2 2 3 3 4 5 5 6 7 8 8 9 10 11 12 13 14 15 15 16 16 16 15 15 15 13
14 13 12 11 10 10 9 7 6 5 4 2 1 2 2 2 3 2 2 2 2 2 2 2 3 3 3 4 4 5 6 8 9 9 10 11 12 13 14 14 15 16 16 17 16 16 16 15 14
14 14 13 12 12 10 9 8 6 5 3 2 1 1 2 2 2 2 2 2 2 2 3 3 2 3 3 4 5 6 7 8 9 10 11 12 12 13 14 15 16 16 17 17 18 17 17 16 15
13 14 13 13 12 11 10 8 6 4 2 1 1 1 2 2 2 2 2 2 2 2 3 3 3 3 4 5 6 7 8 9 9 10 11 12 13 14 15 15 16 17 18 18 18 18 17 17 15
13 13 13 12 11 10 9 7 5 4 2 1 1 2 2 3 3 3 3 3 2 3 3 3 3 4 4 5 7 8 8 9 10 11 12 13 14 15 16 17 17 18 19 19 19 18 18 17 16
12 12 13 12 11 9 8 6 4 3 2 2 2 2 3 4 4 4 4 4 3 4 4 4 4 5 5 6 7 8 9 10 12 12 13 14 15 16 17 18 19 20 20 19 19 19 19 18 17
11 11 11 11 10 8 6 5 4 3 2 2 3 3 4 4 5 5 4 4 4 5 5 5 6 6 7 8 8 10 11 12 13 14 15 16 17 18 19 20 20 21 21 21 21 20 20 19 19
11 11 10 10 9 8 6 5 5 4 4 4 4 4 4 5 5 5 5 5 6 6 6 7 8 8 8 9 10 11 13 14 15 16 17 17 18 19 20 21 22 22 23 23 23 22 22 21 20

GEFSSGP_500_meanwind_138.txt.gz
Wind_Speed
9 8 7 6 6 5 4 4 5 6 7 7 8 8 7 5 5 4 2 1 1 1 1 1 2 3 4 5 6 6 7 8 8 8 9 9 9 9 9 10 10 10 10 10 11 11 11 10 10
10 9 8 7 6 5 4 4 5 6 7 7 7 7 6 5 5 4 3 2 1 1 1 1 2 2 4 5 6 6 7 8 8 9 9 10 10 10 10 10 11 11 11 11 11 11 11 11 10
12 10 9 8 7 5 5 5 5 6 7 7 7 7 6 5 4 4 2 2 1 1 1 0 1 3 4 5 6 6 7 8 8 9 9 10 10 11 11 11 11 11 11 11 11 11 11 11 10
13 11 10 8 7 6 6 6 6 6 6 7 7 7 6 5 4 3 2 2 2 2 1 0 1 3 4 5 6 6 7 8 9 9 10 10 11 11 11 11 11 11 11 11 11 11 11 11 10
14 13 11 10 8 7 7 8 7 7 7 7 7 7 6 5 3 3 3 3 2 1 1 0 2 3 4 5 6 7 7 8 9 10 10 11 11 11 11 11 11 11 11 11 11 11 11 11 11
14 14 12 10 8 8 8 8 7 8 8 7 6 6 5 4 4 4 3 2 2 2 1 1 2 4 5 6 6 7 7 8 9 10 10 11 11 12 11 11 11 11 11 11 11 11 11 11 10
14 14 12 10 10 9 9 8 7 8 8 7 6 5 5 5 4 4 2 2 2 2 1 2 3 4 4 5 6 7 7 8 9 10 10 10 11 11 11 11 11 11 11 11 11 11 11 11 10
14 14 13 11 11 11 10 9 9 8 7 6 6 5 5 5 4 3 2 2 2 2 2 3 3 4 5 6 6 7 8 8 9 9 10 10 11 11 10 10 11 11 11 11 11 11 11 10 10
16 15 14 13 12 12 12 11 10 8 8 7 6 5 5 4 4 3 2 2 2 2 3 4 4 4 5 6 7 7 8 8 9 9 10 11 11 10 10 10 11 11 11 11 11 11 11 10 9
17 16 14 13 12 12 12 11 10 8 8 7 6 5 5 5 4 3 3 2 2 2 3 3 4 4 5 6 7 7 8 8 9 10 10 11 11 11 11 11 11 11 11 11 11 11 11 10 10
17 17 15 13 13 12 11 11 11 9 8 7 6 5 5 5 4 3 3 3 2 2 3 3 4 5 5 6 6 7 8 8 9 10 10 11 11 11 11 11 11 12 12 12 12 12 11 11 10
17 16 14 14 13 13 12 11 10 9 8 7 6 5 5 5 4 3 3 3 2 3 3 4 5 5 6 6 6 7 7 8 9 9 10 11 11 11 11 12 12 12 12 12 12 12 12 11 10
17 15 15 15 13 12 12 12 11 10 8 7 6 5 4 4 4 4 4 4 4 4 4 5 5 5 6 6 6 6 7 8 8 9 11 11 12 12 12 12 12 12 12 12 12 12 11 11 10
18 16 15 14 14 13 12 12 11 10 8 7 6 5 5 4 4 4 4 4 4 4 5 5 5 6 6 6 6 7 7 8 8 9 10 11 11 12 12 12 13 13 13 13 13 12 11 11 10
18 16 15 14 13 12 12 11 10 9 8 8 6 6 5 4 4 4 4 4 4 4 4 5 5 5 6 6 6 6 7 7 8 9 10 10 11 12 12 13 13 13 13 13 13 12 12 11 10
19 17 16 15 13 12 12 11 10 9 8 8 6 6 6 5 4 4 4 4 3 4 4 4 5 5 5 6 6 6 6 7 8 8 9 10 11 12 12 13 14 13 13 13 13 13 12 11 10
18 15 15 15 13 12 11 10 10 10 8 7 7 7 6 5 5 4 4 4 4 4 4 4 4 4 5 5 6 6 6 7 8 8 9 10 11 12 12 13 14 14 14 14 13 13 12 11 10
16 15 14 13 12 11 11 11 10 10 9 8 7 7 6 6 6 5 5 5 5 4 4 4 4 4 5 5 5 6 6 7 7 8 9 10 11 12 13 13 14 14 14 14 13 13 12 11 11
15 14 13 13 13 12 11 10 10 9 8 8 8 7 7 6 6 6 5 5 5 5 4 4 4 4 4 5 5 5 6 7 7 8 9 10 11 12 12 13 14 14 14 14 14 13 13 12 12
15 14 13 12 12 13 12 11 9 9 9 9 8 8 7 7 6 5 5 5 5 4 4 4 4 4 4 5 5 5 6 7 8 9 10 11 12 12 12 13 14 15 15 15 14 14 13 13 12
13 13 12 12 11 11 11 10 9 9 9 9 9 9 8 7 6 5 5 5 5 5 4 4 4 4 4 4 4 5 6 7 7 9 10 11 12 12 13 13 14 15 15 15 15 15 14 14 13
12 13 13 13 12 11 11 10 10 10 10 9 8 8 7 7 6 6 5 5 5 5 5 4 4 4 4 4 4 4 5 6 7 8 10 10 11 12 13 13 14 15 16 16 16 16 15 15 14
12 13 13 13 12 11 11 11 10 10 9 8 8 7 7 6 5 5 5 5 5 5 5 4 4 3 4 4 4 4 5 6 7 8 9 10 11 13 13 13 14 15 16 16 17 17 16 15 15
12 12 13 13 12 11 11 11 11 10 9 8 8 8 7 6 6 5 5 5 5 5 5 4 4 4 4 4 4 4 5 6 7 8 9 11 11 12 13 13 14 15 16 16 17 17 16 16 16
13 12 12 12 12 11 10 11 10 9 9 8 7 7 7 6 6 6 5 5 5 5 5 5 4 4 3 3 4 4 5 6 8 9 10 11 12 13 14 14 14 15 15 16 17 17 17 16 16
12 12 12 11 9 9 10 9 8 8 8 7 7 7 6 6 6 6 6 6 5 5 5 5 4 4 4 4 4 5 5 6 8 9 10 11 12 13 14 14 15 15 16 16 17 18 18 17 17
11 12 12 12 10 10 9 8 8 8 7 7 7 7 6 6 6 6 6 5 5 5 5 5 5 4 4 4 5 5 6 7 8 9 10 12 13 14 14 15 16 16 17 17 17 18 18 18 18
11 11 11 11 10 9 8 7 7 8 8 8 7 7 6 6 6 6 5 5 5 5 5 5 5 5 5 5 5 6 7 8 9 10 12 13 14 15 15 16 17 17 18 18 19 19 20 20 20
10 10 11 10 10 9 8 7 8 8 9 8 7 7 7 7 6 6 6 6 6 5 5 5 5 5 5 6 7 8 9 10 11 13 13 14 15 16 17 18 18 19 19 20 21 22 22 22 22
9 10 11 11 10 9 8 7 8 8 8 8 8 7 7 8 7 7 7 6 7 6 6 6 6 6 6 7 8 9 10 12 13 14 15 16 17 18 19 19 20 21 22 23 23 24 24 24 24

GEFSSGP_500_meanwind_144.txt.gz
Wind_Speed
10 9 8 6 5 5 4 4 5 7 8 9 10 10 9 9 8 7 5 4 3 2 2 2 1 1 2 3 4 4 5 6 6 6 6 7 6 6 6 6 7 7 7 7 7 7 6 5 5
11 10 9 7 6 5 5 5 5 6 8 9 10 11 10 10 9 7 6 4 4 3 2 1 1 1 2 3 4 4 6 6 7 7 7 7 8 7 7 7 7 7 8 8 7 7 6 5 5
12 11 10 8 7 7 6 6 7 7 8 9 10 10 10 10 9 7 6 5 4 3 3 1 0 2 3 4 5 5 6 7 8 8 8 9 9 9 8 8 8 8 8 8 8 7 6 5 5
13 13 12 10 9 8 8 7 7 8 9 10 10 11 10 9 8 7 6 5 5 4 3 1 1 2 3 4 5 6 7 8 8 9 9 9 9 9 9 8 8 8 8 8 7 7 7 6 6
13 13 12 10 9 9 9 8 8 8 9 10 11 11 10 9 7 6 5 5 5 4 3 1 1 2 3 4 6 7 7 8 8 9 9 9 9 9 9 9 9 9 9 8 7 7 7 7 7
14 13 12 11 9 9 9 9 9 9 10 11 11 10 9 8 8 7 6 5 4 3 2 1 1 2 4 5 5 6 7 8 8 8 9 9 9 9 9 9 9 9 9 8 7 7 7 7 7
15 14 13 11 10 10 10 9 10 11 10 11 11 10 9 8 8 7 6 6 4 3 2 2 2 3 4 5 6 7 7 8 8 8 9 10 10 9 9 9 9 9 9 9 8 8 8 8 8
16 14 13 12 11 11 11 10 10 10 10 10 10 10 9 8 7 7 6 5 4 3 2 2 3 3 4 4 5 6 7 7 8 9 9 9 9 9 9 9 9 9 9 9 9 9 8 8 8
16 15 14 13 12 11 11 11 10 10 9 9 9 9 8 8 7 6 5 4 3 3 2 3 3 3 4 4 5 6 7 8 8 8 9 9 9 9 9 9 10 10 10 10 9 9 9 9 8
17 15 15 14 13 12 12 11 10 10 9 9 8 9 8 7 6 5 5 3 3 2 2 3 3 3 3 4 5 6 6 7 8 8 9 9 9 9 10 10 10 10 10 10 10 9 9 9 9
17 16 15 15 14 13 13 12 11 10 10 9 9 9 8 7 6 5 4 3 2 2 2 2 2 2 3 4 5 6 6 6 7 8 8 9 9 9 10 10 11 11 10 10 10 10 10 9 9
18 17 16 16 15 15 13 12 11 11 10 9 9 9 8 7 7 5 4 3 2 2 2 2 2 3 3 4 5 5 5 6 7 8 8 8 9 10 10 11 11 11 11 11 11 10 10 10 9
18 18 17 16 15 14 13 13 12 11 11 10 9 9 8 8 7 5 4 3 2 2 1 2 2 3 3 3 4 5 5 6 7 7 8 9 9 10 11 11 11 11 11 11 11 11 10 9 9
18 18 17 16 15 16 14 13 12 12 11 10 9 10 9 8 6 5 4 3 3 2 2 2 2 3 3 4 4 4 5 6 7 8 8 9 10 10 10 11 11 11 11 11 11 11 10 9 9
18 17 16 16 16 16 15 14 14 12 11 10 9 9 8 7 6 5 4 3 2 2 2 2 2 3 3 3 4 4 5 5 6 7 8 9 9 10 11 11 12 12 12 11 11 11 10 9 9
17 17 16 15 15 15 15 15 15 13 11 10 9 8 7 7 6 5 5 4 3 2 2 2 2 3 3 3 4 4 5 5 6 7 8 8 9 10 11 12 12 12 12 11 11 11 10 10 9
17 16 16 15 14 15 15 14 14 14 12 11 10 9 8 7 7 6 5 4 4 3 2 2 2 2 2 3 3 4 4 5 6 7 7 8 9 10 10 11 11 12 12 11 11 10 10 9 9
16 16 15 15 14 14 14 14 14 13 12 11 11 10 9 7 7 6 5 4 4 3 3 2 2 2 2 2 2 3 4 5 6 7 8 8 9 9 10 11 11 12 12 12 11 11 10 9 9
16 16 14 13 13 14 14 13 13 12 11 10 9 9 8 8 7 6 6 4 4 3 2 2 2 2 2 2 2 3 4 4 5 6 7 8 8 9 10 11 12 12 12 12 12 11 10 10 9
14 15 14 13 13 13 12 12 12 11 10 9 9 9 8 8 7 6 6 5 4 3 3 2 2 2 2 2 2 3 3 4 5 6 7 8 8 9 10 10 11 12 13 13 13 12 11 10 9
13 13 12 12 12 12 11 11 10 10 10 9 9 8 8 7 7 6 6 5 4 4 3 3 2 2 2 2 2 3 3 4 4 5 6 7 8 9 9 10 11 12 13 14 14 13 12 11 10
11 13 12 11 12 11 10 10 10 10 10 10 9 8 7 7 7 6 6 6 5 5 4 4 3 3 3 3 3 3 3 3 4 5 5 6 7 8 9 10 11 12 13 13 14 14 13 11 11
11 11 11 10 10 10 10 10 10 11 11 10 9 8 7 7 7 7 7 6 6 6 5 5 4 4 4 4 3 3 3 3 4 4 5 6 7 8 9 10 10 11 12 13 13 14 13 12 11
11 10 10 10 9 9 10 10 11 11 11 10 8 8 8 8 8 7 7 6 6 6 6 6 5 5 5 4 4 3 3 3 3 4 4 5 6 7 9 10 10 11 11 12 13 13 12 12 11
11 11 10 9 9 9 9 9 9 10 10 10 8 8 8 8 8 7 7 7 7 7 7 6 6 6 5 5 4 4 3 3 4 4 4 5 6 7 9 10 11 11 12 12 13 12 12 12 12
11 11 11 9 9 8 8 8 8 9 9 9 8 8 8 8 8 8 7 7 7 7 6 6 6 6 6 6 5 4 4 4 4 4 4 5 6 7 9 10 11 11 12 12 13 12 12 12 12
10 10 10 9 8 7 7 8 8 9 9 8 8 8 8 8 8 8 8 7 7 6 6 6 6 6 6 6 5 5 4 4 4 4 4 5 6 8 10 11 11 11 12 12 13 12 13 13 13
10 10 10 9 8 7 7 7 8 9 9 9 8 8 8 9 8 8 8 7 7 6 6 6 6 6 6 6 5 5 4 4 4 4 5 6 7 8 10 11 11 12 13 13 13 14 14 14 14
9 10 9 9 9 8 7 7 8 9 10 9 9 9 8 8 8 7 7 6 6 6 6 6 6 5 6 6 6 6 5 4 4 5 6 7 8 10 10 11 12 13 14 14 15 16 16 16 16
10 9 9 9 9 9 9 8 9 10 9 10 10 10 9 9 8 8 7 7 7 7 7 7 7 6 5 5 6 6 5 5 6 7 8 9 10 11 12 13 14 14 15 16 16 17 17 17 18

GEFSSGP_500_meanwind_150.txt.gz
Wind_Speed
10 9 7 6 5 5 5 5 6 6 7 8 9 8 7 7 7 6 4 3 2 2 1 1 1 2 3 4 4 5 6 7 7 8 8 8 8 8 8 7 6 7 7 7 7 7 7 6 6
11 10 9 7 7 6 6 5 6 7 8 9 9 9 8 8 8 7 5 3 2 2 1 0 2 2 3 4 5 6 7 7 7 8 8 8 8 8 7 7 7 7 7 7 7 6 6 6 6
12 11 10 9 8 7 7 7 6 6 7 8 9 9 9 9 8 7 6 4 3 2 2 1 2 3 4 5 6 6 6 6 7 8 8 8 8 7 7 7 7 7 7 7 7 7 6 6 6
14 13 11 10 9 7 8 8 7 6 8 8 8 8 8 8 8 8 6 4 3 2 2 1 2 3 4 5 6 6 6 6 7 7 8 8 8 7 8 8 8 8 7 7 7 7 6 6 6
15 14 12 11 9 8 8 8 7 7 7 8 7 7 8 7 7 7 6 5 3 3 2 2 2 3 4 5 6 6 6 6 7 8 8 8 8 8 8 8 8 8 8 7 7 7 7 7 7
16 14 13 12 11 9 8 9 8 8 7 8 8 8 8 8 7 6 5 4 4 3 3 2 2 3 4 5 5 6 6 6 7 8 8 7 7 8 8 8 9 8 8 7 7 7 7 7 8
16 15 13 12 12 10 9 9 9 8 8 8 8 8 8 8 7 6 6 5 4 3 2 2 2 3 4 5 6 6 7 7 7 7 7 7 7 8 8 9 9 8 8 8 8 8 8 8 8
16 16 15 12 12 10 9 8 9 10 9 9 8 8 9 8 7 7 6 4 3 3 1 1 2 3 3 5 5 6 7 6 6 7 7 7 7 8 9 9 9 8 8 8 8 8 9 9 8
16 16 15 13 12 10 9 8 8 9 9 9 9 9 8 8 8 7 5 4 3 2 1 1 2 3 3 5 6 6 6 6 6 7 8 8 8 9 9 9 9 9 9 9 9 9 9 9 9
16 15 14 13 12 10 10 9 9 8 9 10 9 9 9 9 7 6 5 4 3 2 1 2 3 3 4 5 6 5 5 6 6 7 7 8 9 9 9 10 9 9 9 9 9 9 9 10 9
17 16 14 12 12 12 11 10 10 9 9 9 8 8 8 8 6 5 4 3 3 2 1 1 2 3 4 5 5 5 5 5 6 7 7 8 9 9 10 10 10 9 9 9 9 9 9 9 9
17 17 15 13 12 12 10 10 10 10 10 9 9 8 7 6 7 6 5 3 2 1 0 1 2 3 4 5 4 4 5 6 6 7 7 8 8 9 10 10 10 10 9 9 9 9 9 10 9
16 16 15 13 12 12 11 11 11 10 10 9 9 8 7 6 6 6 5 3 2 0 1 1 2 3 4 5 4 4 5 6 7 7 7 7 8 9 10 10 11 10 9 9 9 9 9 10 10
15 14 14 13 12 11 11 12 11 10 10 9 8 8 8 7 7 6 5 3 2 0 1 1 2 3 3 4 4 4 5 6 7 7 7 7 8 10 10 11 10 10 9 9 9 9 9 10 10
14 14 14 13 13 12 11 12 12 11 9 9 8 8 8 7 7 6 4 3 2 1 1 1 1 2 3 3 4 4 5 5 6 6 7 8 9 10 10 11 11 11 10 10 10 9 9 9 9
15 14 14 13 14 14 13 12 13 11 10 10 9 8 8 7 7 6 5 3 2 1 0 1 1 2 3 3 3 4 4 5 6 6 7 8 9 10 10 10 11 11 11 11 10 10 9 9 9
14 13 14 15 15 14 13 12 12 11 10 10 9 8 8 8 7 6 5 3 3 2 1 0 1 1 2 2 3 3 4 5 5 6 7 8 9 10 10 10 10 11 11 11 11 10 9 9 9
13 13 13 15 13 13 13 13 12 11 11 10 9 9 8 7 7 6 5 4 3 2 1 1 1 1 1 1 2 3 4 4 5 6 7 8 9 10 10 11 11 11 12 11 11 10 9 9 9
11 12 11 12 12 12 12 12 12 11 12 11 10 10 9 8 7 7 6 5 3 3 2 2 2 1 1 1 2 3 3 4 5 5 7 7 8 9 9 10 11 12 12 12 11 10 9 9 9
12 10 9 9 11 11 11 11 12 11 11 12 11 10 10 10 9 8 7 5 5 4 3 3 2 2 2 2 2 2 3 3 4 5 6 7 8 8 8 10 11 12 12 12 11 11 10 9 9
11 10 10 8 8 8 8 9 10 11 11 11 11 11 11 10 10 8 7 7 6 5 4 4 3 3 3 3 3 2 3 3 4 5 6 7 7 7 8 9 10 11 12 12 11 11 10 9 9
9 10 9 7 7 7 7 7 9 9 10 11 11 11 10 10 9 8 7 7 6 6 5 5 4 3 3 3 3 3 3 4 5 6 6 6 7 7 8 9 10 11 12 12 12 11 11 10 9
8 8 7 6 6 6 6 7 6 7 7 9 9 10 9 9 8 8 8 7 6 7 6 6 5 5 4 4 4 4 4 4 5 5 5 6 6 7 8 9 9 10 11 12 12 11 11 10 9
6 7 7 6 6 5 6 7 7 7 7 8 9 9 8 8 8 8 8 7 7 8 7 7 6 5 5 5 5 5 5 4 4 4 4 5 5 6 7 8 9 10 11 12 12 12 11 11 10
7 7 6 5 4 4 5 6 7 8 9 9 10 9 9 8 8 8 7 7 8 8 8 7 7 6 6 6 6 5 5 5 5 4 4 5 5 6 7 8 9 10 11 12 12 12 12 11 10
8 8 6 5 3 4 4 5 5 7 8 9 9 9 9 9 8 8 8 8 8 8 8 8 8 7 7 6 6 6 6 6 5 5 5 5 5 6 7 8 8 9 11 11 12 12 12 11 11
8 8 5 3 1 3 5 5 6 7 7 9 9 9 9 9 9 9 9 9 8 8 8 8 8 7 7 7 7 7 7 7 6 6 5 5 5 6 7 8 8 9 10 11 12 12 12 11 11
8 8 7 5 3 2 3 5 6 6 7 8 10 10 10 9 9 9 9 9 9 8 8 8 7 7 7 7 7 8 8 8 7 7 6 6 6 7 8 8 8 9 10 11 12 13 13 12 12
8 8 8 7 5 4 3 5 7 7 7 8 10 10 10 9 9 9 9 8 8 8 7 7 7 8 8 8 8 8 8 8 8 8 7 7 7 7 8 9 9 9 10 11 12 13 14 14 13
7 8 9 8 7 6 7 7 7 9 9 9 10 10 10 10 10 9 9 9 9 8 8 8 8 8 9 9 9 9 9 8 8 8 7 7 8 8 9 10 10 10 11 12 13 14 14 15 15

GEFSSGP_500_meanwind_156.txt.gz
Wind_Speed
9 8 7 7 6 6 4 4 5 6 6 6 5 4 5 5 5 4 4 3 3 2 2 1 1 1 2 2 2 3 3 4 5 5 5 5 6 6 6 5 4 4 5 5 5 6 6 5 5
10 9 8 7 7 6 5 4 4 6 7 5 5 5 4 5 5 5 4 3 3 2 2 1 1 1 1 2 2 3 4 5 5 5 5 5 5 6 6 5 5 5 5 5 5 5 5 5 5
11 10 9 8 8 6 5 4 3 5 6 6 6 6 5 5 5 5 4 3 3 2 2 1 1 1 2 2 3 3 4 5 6 6 5 5 5 5 5 5 6 5 5 5 5 5 5 5 5
11 11 10 9 9 7 6 4 5 5 6 6 6 6 6 6 5 5 5 4 3 2 2 1 1 1 2 2 3 4 5 5 6 5 5 5 5 5 5 6 6 5 5 5 5 5 5 5 5
13 11 11 10 9 9 8 6 4 5 6 6 7 6 7 6 6 5 5 5 4 3 2 1 0 1 2 2 3 4 5 5 5 5 5 5 5 5 6 6 6 6 5 5 5 5 5 5 5
14 13 12 11 11 10 9 7 5 5 6 7 7 7 7 7 7 6 5 5 4 3 2 1 1 1 2 2 3 4 5 5 5 5 5 5 5 6 6 6 6 6 6 6 6 6 6 6 6
14 14 13 12 12 11 8 8 7 6 7 7 7 7 6 6 6 5 5 4 4 3 2 2 1 1 1 3 3 4 5 5 5 5 5 5 5 6 6 6 6 6 6 6 6 6 6 6 6
14 14 13 13 12 11 9 8 9 8 7 8 8 8 7 7 6 6 5 4 3 3 2 1 1 1 2 3 4 4 4 5 5 5 6 6 6 6 6 6 7 7 7 7 7 7 7 7 7
15 14 13 13 12 11 10 9 8 8 8 8 8 8 7 7 6 6 5 4 3 3 2 2 1 2 2 3 4 4 4 5 5 5 6 6 7 7 7 7 7 8 8 7 8 7 7 7 7
15 14 13 13 12 10 9 8 8 8 8 9 8 8 8 7 6 6 5 4 4 3 2 1 1 2 2 3 4 4 4 5 5 6 6 7 7 7 8 8 8 8 8 8 8 8 8 7 7
16 14 13 13 12 10 9 9 9 10 9 10 9 8 8 8 7 6 5 5 5 4 2 2 1 1 2 3 3 4 4 5 5 6 6 6 7 7 8 8 8 8 8 8 8 8 8 8 7
16 15 13 13 12 11 10 11 11 11 10 10 9 9 8 8 7 7 6 5 4 4 3 2 1 0 1 2 3 4 4 5 5 5 6 6 7 8 8 8 8 8 8 8 8 8 8 8 7
16 15 13 12 12 11 11 13 11 11 10 9 8 8 8 8 8 8 6 5 5 4 3 2 1 0 1 2 3 3 4 4 5 6 6 7 8 8 8 8 8 9 9 9 8 8 8 7 6
15 14 13 12 11 11 10 11 11 11 10 10 10 9 9 9 8 8 7 6 5 4 3 2 1 1 1 2 2 3 4 4 5 6 7 8 8 8 8 8 8 8 9 8 8 7 8 7 6
13 13 13 12 11 11 10 10 11 11 11 10 10 10 9 8 8 7 6 6 5 4 2 2 2 2 1 1 2 3 3 4 5 6 7 8 8 8 8 8 8 9 9 8 8 7 7 7 6
13 13 13 12 11 11 11 10 10 11 10 11 11 10 9 8 7 7 7 6 5 4 3 2 2 1 1 1 1 2 3 4 5 6 7 8 8 8 9 9 9 10 9 9 8 7 7 7 6
12 13 13 12 12 12 11 9 10 11 11 12 12 11 10 9 8 7 7 6 5 4 4 4 3 2 1 1 1 2 3 3 4 5 6 7 8 8 8 9 9 10 9 9 8 8 7 7 6
12 12 12 12 11 11 9 8 9 11 12 11 11 11 11 10 9 8 7 6 6 5 5 4 3 2 1 1 1 1 2 3 4 5 6 7 7 8 8 9 9 10 9 9 9 8 7 7 7
11 10 11 12 12 11 10 10 10 11 11 11 11 11 11 11 10 9 7 7 6 5 5 4 3 2 1 1 0 0 1 2 3 4 5 6 6 7 8 9 9 10 10 9 9 8 7 7 7
10 10 10 10 11 10 10 11 11 11 11 11 11 11 11 10 10 9 8 7 6 5 5 4 3 2 2 1 1 1 1 2 2 3 4 5 6 6 7 8 9 10 10 9 9 8 8 8 7
8 8 8 8 9 10 10 10 11 10 10 11 12 12 12 11 10 10 9 8 7 6 6 5 4 3 2 2 2 2 2 1 2 3 4 5 5 6 6 8 8 9 9 9 9 8 8 7 7
6 7 7 6 7 9 10 10 10 10 9 10 11 12 13 12 11 10 9 8 7 7 7 6 5 4 4 3 3 3 3 2 1 2 3 4 5 5 6 7 8 9 9 9 9 8 8 7 7
6 7 7 6 7 8 8 8 8 9 9 9 9 11 12 12 11 10 9 8 8 8 7 6 6 6 5 4 4 3 4 3 2 2 2 3 4 5 5 6 7 8 9 9 8 8 7 7 7
7 7 8 8 7 7 7 7 7 7 8 9 9 10 11 12 11 10 10 9 8 8 8 7 7 6 6 5 4 4 4 4 3 3 2 2 3 3 4 5 5 7 7 8 8 8 8 7 7
6 6 7 7 7 6 6 6 5 5 6 7 8 9 11 11 11 10 10 9 9 8 8 7 7 6 6 6 5 5 4 4 4 4 4 3 3 3 3 4 4 5 6 6 7 7 8 7 7
6 7 7 6 6 6 6 6 5 5 4 6 8 9 10 10 11 11 10 9 8 8 8 7 7 7 7 6 6 5 5 5 5 5 5 5 4 4 3 3 3 4 5 5 6 6 7 7 7
6 7 6 6 5 5 6 6 5 5 5 6 6 9 9 9 10 10 9 8 8 8 8 7 7 7 7 7 7 6 6 6 6 6 6 5 5 5 4 4 3 4 4 5 5 6 7 7 7
7 7 7 6 5 6 6 6 6 5 5 5 6 7 8 8 8 9 9 9 8 8 8 8 8 7 8 8 7 7 7 7 7 7 7 6 6 6 5 5 5 4 4 5 6 6 7 7 8
9 7 7 6 5 5 4 5 5 5 5 4 5 7 7 8 8 9 9 9 9 9 9 9 8 8 8 8 8 8 8 8 8 8 8 8 7 7 6 6 6 6 5 6 6 7 7 8 8
8 7 6 6 5 5 4 4 5 5 5 5 6 7 7 8 8 9 9 9 9 10 10 10 9 9 9 9 9 9 9 9 9 8 8 9 9 8 8 7 7 7 7 7 8 8 8 9 9

GEFSSGP_500_meanwind_162.txt.gz
Wind_Speed
9 8 8 7 6 5 4 4 5 6 6 6 6 6 5 5 4 4 4 3 2 1 1 1 1 3 4 4 5 6 6 7 8 9 9 9 9 9 9 8 8 7 7 7 6 6 5 5 4
10 9 9 8 7 5 4 4 5 6 7 7 6 6 6 5 5 5 4 3 2 2 1 0 1 2 3 4 4 5 6 7 8 8 9 9 9 9 9 8 8 8 7 7 6 6 6 5 5
11 10 9 8 7 6 5 5 5 6 7 7 7 7 6 5 5 5 4 4 2 2 2 1 1 2 3 4 4 5 6 7 8 8 8 9 9 9 9 8 8 8 7 7 6 6 6 6 5
12 12 10 9 8 7 6 6 5 5 6 6 6 7 6 5 5 5 5 4 3 2 1 0 1 2 3 3 4 5 6 7 7 7 8 8 9 9 8 8 8 8 7 7 6 6 6 6 5
13 12 11 9 8 7 7 7 6 6 6 6 7 7 6 5 5 5 4 3 2 1 1 1 1 2 3 3 4 5 6 6 7 7 8 8 9 8 8 8 8 7 7 7 6 5 5 5 5
14 13 12 10 9 9 8 7 7 7 6 6 7 7 7 6 6 5 4 4 3 2 2 1 1 2 3 3 3 4 5 6 6 7 8 8 9 8 8 7 7 7 7 6 6 5 5 5 5
14 14 12 11 10 9 9 8 7 8 7 7 8 8 8 7 6 6 6 5 3 3 2 1 0 2 2 3 4 4 5 6 6 7 8 8 9 8 8 8 7 7 7 6 6 5 5 5 5
14 14 13 12 11 10 9 8 8 8 8 8 8 8 8 8 7 7 7 6 4 4 2 1 1 1 2 3 3 4 5 6 7 7 8 8 9 9 8 8 7 7 7 6 6 6 6 5 5
15 14 13 13 12 11 10 9 8 8 8 8 8 8 8 9 8 8 7 6 5 4 2 2 1 0 1 2 3 4 4 5 6 7 8 8 8 8 8 8 7 7 7 6 6 6 6 5 5
15 14 13 13 12 11 10 9 9 8 9 9 9 8 8 8 7 7 6 5 4 3 2 1 1 1 1 2 3 3 4 5 6 7 7 7 8 8 8 8 8 8 7 6 6 6 6 6 5
15 15 14 14 13 12 10 10 9 8 10 11 10 9 9 9 8 7 6 5 5 4 3 2 1 1 2 2 3 4 4 5 6 7 7 7 7 7 8 8 8 7 7 7 6 6 6 6 5
15 15 15 14 13 12 11 11 11 10 10 11 10 10 11 9 8 7 7 5 4 4 3 2 1 1 2 2 3 4 5 6 6 7 7 7 7 7 8 8 8 7 7 7 6 6 6 6 5
14 14 14 14 13 12 12 11 11 10 11 11 12 12 11 10 9 7 7 6 5 4 3 2 1 1 1 2 2 3 4 5 6 7 7 7 7 7 7 8 8 8 7 7 7 6 6 5 5
14 14 13 13 13 13 12 11 10 10 11 11 12 12 11 11 10 8 7 6 6 4 3 2 2 1 1 1 2 3 3 4 5 6 7 7 7 7 7 8 8 8 8 7 7 7 6 6 5
14 14 14 14 14 13 12 11 11 10 11 12 12 12 12 12 10 9 8 7 6 5 4 3 2 1 0 1 1 2 3 4 5 6 7 7 7 8 8 8 8 8 8 7 6 6 6 6 5
13 14 15 14 13 13 12 12 11 12 12 12 12 12 12 11 10 10 9 8 7 5 5 4 2 2 1 0 1 2 3 4 5 6 7 6 7 8 8 8 8 8 8 7 6 6 6 6 5
12 13 13 13 12 12 13 13 12 12 13 13 12 12 12 11 11 11 10 8 7 6 5 4 3 3 2 1 0 1 2 3 4 5 6 6 7 8 8 8 8 8 7 7 6 6 6 6 5
10 12 13 12 12 12 13 12 11 11 13 14 14 13 13 12 11 11 10 8 7 6 6 5 4 3 2 1 0 1 2 3 4 5 5 6 6 7 8 8 8 8 7 7 6 6 5 5 5
9 10 11 11 11 12 12 12 11 12 13 14 14 14 13 12 11 10 9 8 8 7 6 5 4 3 2 1 1 0 1 2 3 4 4 5 6 7 7 8 8 8 7 7 7 7 6 6 5
7 9 9 9 11 12 12 11 12 12 13 14 15 14 13 12 12 11 10 9 8 7 6 5 4 4 3 2 1 1 1 2 3 3 4 4 5 6 7 7 8 7 7 7 7 7 7 6 6
6 8 9 9 10 11 11 10 11 12 13 14 14 14 14 13 13 12 11 10 9 8 7 6 5 5 4 3 2 2 2 2 2 3 3 3 3 4 5 6 7 7 7 7 7 6 6 7 6
5 7 9 8 9 10 10 10 10 10 11 13 14 14 14 13 13 12 11 10 9 8 7 7 5 5 5 4 3 2 2 1 2 2 2 3 3 3 4 5 5 6 6 6 6 6 6 6 6
5 5 7 7 9 9 9 10 10 10 10 12 13 13 14 13 13 13 12 10 9 9 8 7 5 5 5 5 4 4 3 3 2 2 2 3 2 2 3 4 4 4 5 5 5 5 5 5 5
5 6 6 7 7 8 8 9 10 9 10 11 12 13 14 13 13 12 12 11 10 9 8 7 6 6 6 6 5 5 4 4 3 3 3 3 3 3 3 3 3 3 3 4 4 4 4 5 4
6 7 7 7 7 6 7 8 9 9 9 10 12 12 13 13 12 12 11 10 10 9 9 8 7 7 7 7 7 6 6 5 5 4 4 4 4 4 4 3 3 3 3 3 3 4 4 4 4
6 6 7 7 7 6 6 7 8 9 9 9 10 11 12 12 12 11 11 10 10 10 9 8 8 8 8 8 8 7 6 6 6 6 5 5 5 5 5 5 5 4 4 4 4 4 4 4 4
6 6 6 6 6 5 5 6 7 8 8 9 9 10 11 11 11 12 12 11 10 9 9 8 8 9 9 9 9 8 7 7 7 7 7 7 7 7 7 7 6 6 6 5 5 4 4 4 5
6 6 6 6 5 5 5 6 7 8 8 8 9 9 10 11 11 11 12 11 10 10 9 9 9 9 9 9 9 9 9 8 8 8 7 8 8 8 9 8 7 7 7 7 6 5 5 5 5
7 6 6 6 6 5 6 6 8 8 7 7 8 8 9 10 11 11 11 11 11 10 10 9 9 9 9 9 9 9 9 9 9 9 9 9 9 9 9 9 9 8 8 8 8 7 7 7 7
7 8 8 7 7 6 6 6 7 7 6 7 8 8 9 10 11 11 11 11 11 11 11 10 9 9 9 9 10 10 10 10 10 10 10 10 10 10 10 9 9 9 9 9 9 8 9 9 9

GEFSSGP_500_meanwind_168.txt.gz
Wind_Speed
7 7 7 6 6 6 5 6 7 7 7 8 8 9 9 7 6 6 5 5 4 3 3 2 2 2 3 3 3 4 4 5 5 5 5 5 5 5 5 4 3 3 3 3 2 1 1 1 2
9 8 8 7 7 7 6 6 6 7 8 8 8 8 8 8 7 6 6 6 5 4 3 2 2 2 2 2 3 4 4 4 5 5 5 5 5 5 5 5 4 3 3 2 2 1 1 1 2
9 9 9 8 8 8 7 8 7 7 7 8 8 8 8 7 7 7 7 6 5 4 3 2 1 1 1 2 2 3 4 4 5 5 5 5 5 5 5 5 4 3 3 2 2 2 2 2 2
10 9 9 8 8 8 8 7 8 7 8 8 8 8 8 7 8 7 7 6 5 4 3 2 1 1 0 1 2 3 3 4 4 5 5 5 6 6 5 5 4 3 3 2 2 2 3 3 3
11 10 9 9 9 9 8 7 7 7 8 8 8 9 9 8 8 7 7 7 6 5 3 3 2 1 0 1 2 3 3 4 5 5 5 5 6 6 6 5 4 4 3 3 3 3 3 3 3
12 11 10 10 9 9 8 8 7 7 8 9 9 9 8 8 8 7 7 7 6 5 4 3 3 2 1 0 1 2 3 4 4 5 5 5 6 6 6 5 5 4 4 3 3 3 3 3 3
13 12 11 11 10 10 9 8 8 7 8 9 10 10 9 9 8 7 7 6 6 6 5 4 3 2 1 1 1 2 3 4 5 5 5 5 5 6 6 6 5 5 4 4 3 3 3 3 3
13 12 12 12 11 11 10 9 8 8 8 9 9 10 10 9 8 8 7 7 6 6 5 4 4 2 1 1 1 2 3 4 4 5 5 5 5 5 6 6 5 5 4 4 4 3 3 3 3
14 13 13 13 12 11 11 9 9 9 8 9 9 10 10 9 9 9 8 7 5 6 5 4 4 2 2 1 1 2 3 4 4 5 5 4 4 5 5 6 5 5 4 4 4 3 3 2 3
14 14 14 14 13 12 11 10 10 10 9 9 9 10 10 10 10 9 9 7 6 5 5 5 4 2 2 1 1 2 3 4 4 4 5 4 5 5 5 5 5 5 4 4 4 4 3 2 2
14 14 14 14 14 13 12 11 10 10 11 10 9 10 10 10 10 10 9 8 6 5 5 5 4 3 2 1 1 1 2 4 4 5 5 4 5 5 5 5 5 5 5 4 4 3 3 2 1
14 14 14 15 14 13 13 12 11 10 11 11 10 10 11 11 10 10 9 8 7 6 5 5 4 3 3 2 1 1 2 3 4 5 5 5 4 5 5 5 5 5 4 4 4 3 3 2 1
13 13 14 15 14 13 13 13 11 11 10 10 11 12 12 11 10 10 9 8 7 6 5 5 4 4 3 2 1 1 2 3 4 4 5 5 5 5 5 5 5 5 4 4 4 3 2 2 1
11 13 13 14 14 14 14 13 12 11 10 10 10 12 12 12 11 11 10 9 8 7 6 5 4 3 3 2 1 1 2 2 3 4 4 5 5 6 6 5 5 4 4 3 3 3 2 1 1
10 11 13 14 14 14 14 13 13 12 11 9 9 10 13 13 12 11 10 10 8 8 7 6 5 4 3 2 1 0 1 2 3 3 4 4 5 5 6 5 5 4 4 4 3 3 2 1 1
10 11 12 13 14 14 14 14 13 12 12 10 10 10 12 12 12 11 11 10 9 8 7 7 6 4 3 2 2 1 1 2 3 3 4 4 4 5 5 5 5 4 4 3 3 3 2 2 2
9 10 12 13 14 14 14 14 13 12 12 11 11 11 11 12 12 11 11 10 9 8 8 7 6 5 3 3 2 1 1 2 3 3 4 4 4 5 5 5 5 4 4 4 3 3 3 2 2
9 10 11 12 13 14 14 14 13 12 12 12 12 12 12 12 12 12 11 10 9 9 9 7 6 5 4 3 3 2 1 2 2 3 4 4 4 5 5 5 5 5 4 4 4 3 3 2 2
7 8 10 11 11 12 12 12 12 13 13 13 13 13 12 12 12 12 11 10 10 9 8 7 6 6 5 4 3 2 1 1 2 2 3 3 4 4 5 5 5 5 5 4 4 3 3 3 2
6 7 8 10 10 10 10 11 12 13 13 13 14 13 13 12 12 11 11 10 10 9 8 7 7 6 5 4 4 3 2 2 2 2 2 2 3 4 4 5 5 4 4 4 4 4 3 4 3
5 7 8 7 8 9 9 10 11 12 13 13 14 14 13 13 12 11 12 11 10 9 8 8 7 7 6 5 5 4 3 3 3 2 2 2 2 3 4 4 4 4 4 4 4 4 3 3 3
5 5 6 6 7 8 8 9 10 11 12 12 14 13 13 14 13 12 12 11 11 10 9 8 7 7 6 6 6 5 4 4 3 3 2 2 2 3 3 4 4 4 4 3 3 3 3 2 2
5 5 5 5 6 7 8 8 9 9 9 10 12 12 13 14 13 13 12 11 11 10 9 8 8 7 7 7 6 5 5 4 4 4 3 3 2 3 3 4 4 4 4 3 2 2 2 2 1
4 5 5 5 5 6 7 8 8 9 9 10 11 12 12 13 13 13 12 11 11 11 10 9 9 8 8 7 7 6 6 5 5 4 3 3 3 3 3 4 4 4 4 4 3 2 2 2 1
4 5 5 4 5 5 6 8 8 9 9 9 10 12 11 12 12 12 12 11 11 11 11 10 10 9 9 8 8 7 7 6 6 5 4 4 4 3 3 4 4 4 5 4 4 4 3 3 3
4 5 5 5 4 4 5 6 7 8 8 8 9 10 11 10 11 11 11 12 12 11 11 11 11 10 10 9 9 9 8 8 7 6 6 5 4 4 4 4 4 5 5 5 5 5 4 4 4
4 5 5 5 4 4 5 5 5 6 7 7 8 9 10 10 11 11 11 12 12 12 11 11 11 11 11 11 11 10 10 8 8 7 7 6 6 6 5 5 5 6 7 6 6 6 5 5 4
5 5 5 5 5 4 5 6 6 6 7 8 9 9 10 11 11 11 12 12 12 12 11 11 11 11 12 12 11 10 10 9 9 8 8 7 7 7 7 7 7 7 7 8 7 7 6 6 5
5 5 5 5 6 5 5 6 6 6 6 7 9 10 10 10 11 11 12 11 11 11 11 11 11 11 11 12 11 10 10 10 9 9 9 9 8 8 8 8 8 8 8 8 8 7 7 7 7
6 6 6 6 6 6 5 6 6 6 6 7 7 8 9 10 10 11 12 11 11 11 11 11 11 10 10 10 10 10 10 9 10 9 10 10 10 10 9 9 9 9 9 9 9 9 8 8 8

GEFSSGP_500_meanwind_174.txt.gz
Wind_Speed
5 5 6 6 6 6 6 6 7 7 7 7 8 7 6 6 5 5 4 3 3 2 1 1 1 0 1 1 2 3 3 4 4 4 4 4 4 4 4 4 4 4 4 4 4 4 4 4 4
7 7 7 7 6 6 6 7 8 7 7 7 8 8 8 6 6 5 5 4 4 3 2 1 1 0 1 2 3 3 3 3 4 5 5 5 5 5 5 5 5 5 4 4 4 5 4 4 5
8 8 8 7 7 7 7 7 8 8 8 7 7 8 8 7 7 6 6 5 5 4 3 3 2 1 1 2 2 3 3 3 4 5 5 5 6 6 6 6 6 5 5 4 4 5 5 5 4
9 9 9 8 8 8 8 7 8 9 9 8 8 8 8 8 7 8 7 6 6 5 4 3 2 2 1 1 2 3 3 4 5 5 6 6 6 6 6 6 6 5 5 5 5 5 5 5 5
10 10 10 9 9 9 10 9 9 9 10 9 9 9 9 8 8 8 8 7 7 6 5 4 3 2 1 1 2 2 3 4 5 6 6 6 6 6 6 5 5 5 6 6 5 5 5 5 5
11 11 10 10 10 10 10 10 10 10 10 10 10 9 9 9 9 9 8 7 7 6 5 5 4 2 1 1 1 2 3 5 5 6 6 6 6 6 6 6 5 5 6 6 5 5 5 5 5
11 11 11 10 11 11 10 10 10 11 11 11 10 10 10 9 9 9 8 7 7 6 5 4 3 2 2 1 0 1 3 5 5 6 6 6 6 6 6 6 6 6 6 6 5 4 4 4 5
12 12 11 11 12 12 11 11 11 10 10 11 11 11 10 10 9 9 8 8 7 6 5 5 3 2 2 1 0 1 3 4 5 5 6 6 6 6 6 6 6 6 6 5 5 4 4 4 4
14 13 13 13 13 12 11 12 11 11 10 10 10 10 11 11 10 10 9 8 6 6 5 4 4 3 2 1 0 1 3 4 5 5 6 7 7 6 6 7 7 7 6 5 5 4 4 4 3
14 14 14 14 13 13 12 12 12 11 10 11 11 11 11 10 10 10 10 8 6 6 5 4 3 2 2 1 0 1 3 4 5 6 6 7 6 6 7 7 7 7 6 5 5 4 4 3 3
13 14 14 15 14 13 13 13 12 12 11 11 11 11 11 11 11 10 10 8 7 6 5 4 3 2 1 1 1 1 3 4 5 6 6 7 7 7 7 8 7 7 6 6 5 4 4 3 2
13 13 13 14 14 14 13 13 12 11 11 12 11 11 11 10 11 10 9 8 7 6 5 4 3 3 2 1 1 2 3 4 5 6 6 7 7 7 8 8 8 7 6 6 5 4 4 3 2
12 13 13 13 14 14 14 13 13 12 11 11 11 11 11 10 11 11 9 8 7 7 6 4 4 3 2 1 1 2 3 4 5 6 6 7 8 8 8 8 7 7 6 6 5 4 4 4 2
11 12 12 13 13 14 14 14 13 13 11 11 11 11 10 10 10 11 10 9 8 7 6 5 4 3 2 1 1 2 3 4 5 6 6 7 8 8 8 8 7 7 6 6 5 5 4 4 3
10 11 11 12 13 13 14 14 14 13 12 11 11 11 11 11 10 10 10 9 8 7 6 5 4 3 2 2 2 2 3 4 5 5 6 6 7 7 8 8 8 7 7 6 6 5 4 4 3
8 10 11 11 12 13 14 14 13 14 13 11 10 10 11 11 10 10 10 9 8 8 6 5 4 3 3 2 2 3 3 4 5 5 6 6 7 7 7 8 8 7 7 6 6 5 5 4 3
8 9 10 10 10 11 12 13 12 13 13 12 11 10 11 11 10 10 10 10 9 8 7 6 5 4 4 3 3 3 4 4 4 5 5 6 6 6 7 7 8 7 7 7 6 6 5 4 3
7 8 9 9 9 10 11 11 11 12 12 12 12 11 10 11 10 10 9 10 9 8 7 7 6 5 4 4 3 3 3 3 4 4 5 5 5 6 7 7 7 7 7 7 6 5 5 5 4
7 7 8 7 7 8 9 9 10 11 12 12 12 11 10 10 9 8 8 9 9 8 8 7 6 5 4 4 3 3 3 3 3 4 5 5 5 5 6 6 6 7 6 6 6 5 5 5 4
6 7 7 7 7 8 9 9 9 9 11 12 12 11 11 10 9 8 8 7 8 8 7 6 6 5 5 4 3 3 3 2 3 3 4 5 5 5 5 5 6 6 6 5 5 5 5 5 4
4 5 5 6 7 8 8 8 9 9 10 11 11 12 12 10 8 8 8 8 8 8 7 6 6 6 5 4 3 4 3 2 2 3 4 4 4 4 4 4 5 5 5 5 5 4 4 4 4
3 3 4 5 6 6 6 6 7 8 9 10 10 11 11 10 9 8 8 8 8 8 8 7 6 6 5 4 4 4 4 3 3 3 4 4 4 4 4 4 5 5 5 4 4 4 4 4 4
3 3 3 3 4 4 5 6 6 7 8 9 10 10 11 10 9 9 9 9 9 8 8 7 7 6 5 5 5 5 5 4 3 3 3 4 4 4 4 4 4 5 5 4 4 3 3 3 3
3 3 2 2 3 3 3 5 5 5 6 8 9 9 9 10 9 10 10 10 9 9 8 7 7 7 6 5 5 5 5 5 5 4 4 4 4 4 4 4 4 4 4 4 4 4 4 4 4
3 2 1 0 1 2 3 5 5 5 6 7 8 8 8 9 9 10 10 10 10 9 9 8 8 8 7 6 6 6 6 6 6 5 5 5 5 5 4 4 4 4 4 4 3 4 4 4 4
3 3 2 1 1 2 3 5 4 4 5 7 7 7 7 8 9 10 10 11 11 10 9 9 9 8 7 7 7 7 7 7 7 6 6 5 6 6 5 5 4 4 4 4 4 4 5 5 5
4 4 3 3 2 2 3 5 5 4 5 5 6 7 7 8 8 9 9 10 10 10 10 10 10 9 8 8 8 9 8 8 7 7 6 6 6 7 6 5 5 5 5 5 5 6 6 6 6
5 4 5 5 4 4 4 5 5 5 5 5 6 7 8 8 9 9 9 10 10 10 10 10 9 9 8 9 9 8 8 8 7 7 7 7 7 7 7 7 6 7 7 7 7 7 7 7 6
5 6 6 6 5 5 5 6 6 5 6 6 6 7 8 8 9 8 9 9 9 9 9 9 9 9 9 8 8 9 8 8 8 8 8 8 8 8 8 8 8 8 8 8 8 8 8 7 7
6 7 7 8 7 7 7 7 6 6 7 7 7 8 8 8 8 9 9 9 9 9 9 9 8 9 9 10 10 10 9 9 9 9 10 10 9 9 9 10 9 10 10 10 9 9 9 8 8

GEFSSGP_500_meanwind_180.txt.gz
Wind_Speed
6 6 7 8 9 9 8 8 7 7 7 6 5 5 5 5 4 3 3 3 2 2 1 1 1 0 1 1 1 1 2 2 3 4 4 5 5 5 5 5 5 4 5 5 5 5 6 6 7
6 6 6 8 9 8 8 8 8 7 7 6 5 5 5 4 4 3 3 3 3 2 2 2 2 1 1 1 1 1 2 2 3 4 5 5 5 5 5 5 5 5 5 5 5 5 6 6 6
7 7 7 8 8 8 8 8 7 7 7 7 6 5 5 4 4 4 4 3 2 2 2 3 2 1 2 2 1 1 2 3 3 4 5 5 5 5 5 5 5 5 5 5 5 5 6 6 6
8 8 8 8 9 9 9 8 7 7 8 7 7 6 5 5 5 5 4 4 3 3 2 2 2 2 2 2 1 1 2 3 3 4 5 5 6 5 5 5 5 5 6 6 5 5 5 6 5
9 9 9 10 11 10 9 8 8 8 8 8 7 6 6 6 6 6 6 5 4 4 4 3 4 3 2 2 1 1 2 2 3 4 5 6 6 6 5 5 5 5 5 5 5 5 5 5 5
10 10 10 10 10 10 10 9 8 8 8 8 8 7 6 6 7 6 6 7 5 4 4 5 4 4 3 2 2 1 2 3 3 5 6 6 6 6 6 5 5 5 5 5 5 4 5 5 5
10 11 11 10 10 10 9 9 9 9 9 9 9 9 7 7 7 7 6 7 6 6 5 5 4 4 4 3 2 2 2 3 4 5 6 6 6 6 6 6 6 6 5 5 5 5 4 5 5
11 10 10 11 10 10 10 8 9 10 10 10 10 9 9 8 8 7 7 7 6 6 5 5 5 5 4 3 3 3 3 3 3 5 5 6 6 6 6 6 6 6 5 5 5 4 4 4 4
11 11 11 11 10 9 9 8 8 9 9 9 9 9 9 9 9 7 7 7 6 6 6 5 5 4 5 4 3 2 2 2 3 5 6 6 6 6 6 6 6 6 5 5 4 4 3 3 4
11 11 10 11 11 10 9 10 8 9 9 9 9 9 9 9 9 8 7 7 7 6 6 5 5 5 4 4 3 2 2 2 3 4 6 6 6 7 7 7 6 5 5 4 4 3 3 2 3
11 10 10 10 10 10 10 10 9 9 9 9 9 9 9 10 9 8 7 7 7 6 5 5 5 4 4 3 2 1 1 2 3 4 5 6 6 6 7 7 6 6 5 4 3 3 2 1 2
12 11 11 11 10 10 9 10 10 10 9 9 9 8 9 10 9 8 8 7 7 6 5 5 5 4 3 3 2 1 1 2 3 4 5 5 6 6 6 6 6 6 5 4 3 2 1 1 1
11 9 10 10 9 9 9 10 10 9 9 9 9 9 9 9 8 9 9 8 7 7 6 6 6 5 4 3 2 1 1 2 3 4 4 4 6 6 6 6 6 6 5 4 3 2 1 1 1
9 10 10 9 8 8 8 9 10 9 9 10 8 9 10 10 9 9 9 9 9 8 7 6 6 5 4 3 2 2 1 2 3 3 4 4 5 5 6 6 6 5 5 4 4 3 1 1 1
8 7 8 9 9 8 8 8 9 9 9 10 9 9 10 10 9 9 9 8 7 8 7 6 6 6 5 4 3 1 1 2 3 3 4 4 5 5 5 6 6 5 5 4 4 3 2 1 1
7 8 7 8 9 8 9 9 9 9 9 9 10 10 10 10 9 8 9 8 8 8 7 7 7 6 5 4 2 1 1 2 2 3 3 4 4 5 5 5 5 5 5 4 4 3 3 2 2
6 7 7 7 8 8 9 9 9 10 10 9 9 10 10 9 9 8 8 8 9 8 7 7 7 6 5 4 2 2 1 1 2 2 3 4 4 4 5 5 5 5 5 4 4 3 3 2 2
5 5 6 6 7 8 8 9 9 10 10 9 9 8 9 9 9 9 8 8 9 8 8 7 7 6 5 4 3 2 1 1 1 2 3 3 3 4 4 4 5 5 4 4 4 3 3 3 2
6 5 4 5 6 6 7 8 8 8 8 9 9 9 9 9 9 9 9 8 8 8 8 7 7 6 5 4 3 2 2 1 1 1 2 3 3 3 3 4 4 4 4 4 4 4 4 3 2
5 5 4 5 5 6 7 8 8 8 8 8 9 9 10 10 10 10 10 9 9 8 8 7 7 6 6 5 4 3 3 2 1 1 2 2 2 3 3 4 4 4 4 3 3 3 3 3 2
4 5 4 3 5 6 6 7 7 7 7 8 8 9 10 9 10 11 10 10 9 8 8 6 7 7 6 6 5 4 4 3 2 1 1 1 2 3 3 3 3 4 3 3 2 2 2 2 1
4 4 4 3 4 5 5 5 5 6 6 6 8 9 9 10 10 10 10 10 10 9 8 7 7 7 7 6 5 5 4 3 2 1 1 2 2 3 3 3 3 3 3 2 2 1 1 1 1
3 3 4 3 3 3 4 4 4 4 5 5 7 8 9 9 10 9 10 9 9 10 9 8 8 8 8 7 6 5 5 4 3 2 2 2 2 2 3 3 3 3 3 2 2 1 1 1 1
3 3 3 4 4 3 3 3 4 4 5 6 7 8 8 9 10 10 10 9 10 11 10 9 8 8 8 7 6 5 5 5 4 4 3 4 3 3 3 3 3 3 3 2 2 1 1 2 2
4 4 4 4 4 3 3 3 2 4 5 6 7 8 8 9 10 10 10 9 10 11 11 10 9 8 8 8 6 5 5 5 4 4 4 4 3 3 4 4 3 3 3 3 2 2 2 3 3
5 4 4 4 4 4 4 3 3 3 4 5 6 7 8 9 10 10 10 9 10 12 12 11 10 9 9 8 7 6 6 5 5 5 4 4 3 3 3 3 3 4 4 4 4 3 3 3 4
6 6 6 5 4 4 4 4 4 4 4 4 5 7 8 9 9 9 10 10 11 12 12 11 10 9 10 9 7 7 7 7 6 5 5 5 5 4 4 4 4 4 5 5 5 5 4 4 4
7 7 6 6 5 5 5 4 4 4 4 4 4 6 7 8 9 9 10 10 11 11 11 11 10 10 9 10 9 8 7 7 7 7 6 6 6 6 6 6 6 6 6 6 6 6 6 6 6
7 8 7 6 6 6 5 4 4 4 4 5 5 5 7 8 9 10 10 9 10 11 11 11 11 10 10 10 10 9 9 9 9 8 7 7 7 7 7 8 8 8 8 7 7 7 8 9 9
7 8 8 7 6 6 6 5 5 5 4 4 4 5 7 8 9 9 9 9 9 10 10 11 11 11 11 11 11 11 10 10 9 9 9 8 8 8 9 9 9 9 9 9 10 10 10 11 11

GEFSSGP_500_meanwind_186.txt.gz
Wind_Speed
6 6 6 7 9 9 7 7 7 6 6 5 4 4 4 3 4 3 2 2 1 1 1 2 2 3 4 4 4 4 4 5 6 6 6 7 7 6 6 6 6 5 5 5 5 5 5 6 6
7 7 7 7 9 9 8 8 8 7 6 5 5 4 4 4 4 3 3 2 2 2 2 2 3 3 3 3 3 4 4 5 5 6 6 6 6 7 6 6 6 6 6 6 5 5 6 6 5
8 8 8 9 8 8 8 8 8 7 7 7 6 6 5 5 5 4 3 3 3 2 2 3 3 3 3 3 3 3 4 4 5 6 6 6 7 7 7 7 6 6 6 6 6 6 6 6 6
9 8 9 9 8 8 7 8 7 7 8 8 8 7 6 5 4 5 4 3 3 3 3 2 3 3 2 2 3 4 4 4 4 6 6 6 7 7 7 7 7 6 6 7 6 6 6 6 6
10 10 9 9 9 9 8 7 8 8 8 8 8 7 6 5 6 6 5 4 5 4 3 3 3 3 3 3 3 3 3 4 4 5 6 6 7 7 7 7 7 7 7 7 6 6 6 5 5
11 10 10 10 9 9 9 8 8 9 8 8 7 7 7 6 6 6 6 5 5 4 4 4 4 3 3 3 3 2 3 4 5 5 6 6 7 7 7 7 7 7 7 7 6 5 5 5 5
11 10 10 9 10 10 9 8 8 9 9 8 8 8 7 7 7 6 6 6 6 5 5 5 4 3 3 4 3 2 3 4 5 5 6 6 7 7 7 7 7 6 6 6 5 5 5 5 5
11 11 9 8 9 11 10 9 9 9 9 9 9 8 8 8 7 7 7 7 6 5 5 5 5 4 3 4 3 3 4 5 5 5 5 6 7 7 7 7 6 6 6 6 5 5 4 5 5
10 11 10 9 9 9 9 9 9 9 9 9 8 8 9 8 7 7 7 7 7 7 6 5 5 5 4 4 4 3 3 4 4 4 5 6 6 6 7 7 7 6 6 6 5 5 5 5 5
10 10 10 10 10 9 9 9 10 10 10 9 9 9 9 9 8 8 8 7 7 7 7 6 5 5 5 4 3 3 3 4 4 4 5 5 6 6 7 7 7 6 6 6 5 5 5 4 4
10 10 10 10 10 10 9 9 9 10 10 10 9 10 9 9 9 10 9 8 8 8 7 6 6 5 5 4 3 3 4 4 4 4 4 5 6 7 7 7 7 6 6 5 5 5 4 3 3
10 11 10 10 10 10 9 10 10 10 9 9 9 10 10 9 10 10 9 9 8 7 7 7 6 5 5 4 3 3 3 3 3 4 4 5 6 6 6 7 7 6 6 5 5 4 3 3 2
10 9 9 9 9 9 9 10 10 10 10 9 8 10 11 10 10 10 10 9 8 7 6 6 6 5 5 4 4 4 3 3 3 4 4 4 5 6 6 6 6 6 6 5 5 4 3 2 2
9 8 8 9 9 9 10 9 9 9 9 9 9 9 9 10 10 10 11 10 8 7 6 7 7 6 6 5 4 3 2 2 3 3 4 4 5 6 6 6 6 6 5 5 4 4 3 3 2
8 8 8 9 10 10 9 9 10 9 8 9 9 9 9 10 11 11 11 11 10 8 7 7 6 6 6 5 4 3 3 3 3 3 3 4 5 6 6 6 6 5 5 5 4 3 3 2 2
9 9 8 8 9 9 10 9 10 9 9 9 8 9 9 9 11 11 11 11 10 9 8 8 7 6 6 5 4 4 3 3 3 3 3 4 5 5 6 6 5 5 5 4 3 3 2 2 1
8 9 9 9 8 9 9 9 9 9 9 9 9 9 9 9 10 11 11 11 10 9 9 8 8 7 7 6 5 4 3 2 2 2 2 4 5 5 5 5 5 5 4 3 3 2 2 2 1
8 9 9 9 8 8 9 9 9 9 9 10 9 9 10 10 10 10 11 11 11 10 9 9 8 8 7 6 5 4 3 2 2 2 2 3 4 5 5 5 5 5 4 3 3 2 2 1 2
9 9 10 9 8 8 9 8 8 9 9 10 10 10 11 11 10 9 10 10 10 10 9 9 9 8 7 6 6 5 3 3 2 2 2 2 3 3 4 5 5 5 4 4 3 2 2 1 1
8 8 9 9 9 9 9 9 8 9 9 10 10 10 11 11 11 10 10 10 10 10 9 9 8 8 7 7 6 5 4 4 3 2 2 2 3 3 4 4 5 5 4 3 2 2 2 1 1
8 8 8 8 8 8 8 9 9 8 9 9 10 10 11 11 11 10 11 10 9 9 9 9 9 8 7 7 6 6 5 4 3 2 1 1 2 3 4 4 5 5 4 3 2 2 2 1 1
6 7 7 7 8 8 8 8 8 8 8 9 9 9 10 10 10 10 10 10 9 8 8 8 8 8 7 7 6 5 5 4 4 3 2 1 2 3 3 4 4 4 4 3 3 2 2 2 1
7 7 7 7 7 7 7 7 8 8 8 8 9 10 10 10 10 10 10 10 10 9 9 9 9 8 7 7 6 6 5 5 4 3 2 2 2 3 3 4 4 4 4 4 3 2 2 2 2
7 8 7 7 7 7 7 8 8 8 8 8 9 10 11 11 12 12 11 10 10 10 10 9 9 8 8 7 7 7 6 5 5 4 3 3 3 3 4 4 4 4 4 4 3 3 3 2 2
7 8 8 7 7 6 7 8 7 7 7 7 8 9 10 12 12 13 13 12 12 12 11 10 9 9 9 8 8 7 6 6 6 5 5 4 3 4 4 4 4 4 4 4 3 3 3 3 3
6 7 7 7 7 6 6 6 5 6 6 6 7 8 9 10 11 11 12 12 11 12 12 11 11 11 10 9 8 8 8 7 7 6 5 5 4 5 5 5 5 5 5 4 4 4 4 5 5
7 7 7 8 7 6 6 6 5 5 6 6 6 7 9 10 11 11 11 11 11 12 12 12 12 11 11 10 9 9 9 8 8 7 7 6 6 6 6 6 6 5 5 5 5 5 6 6 6
8 8 8 8 7 6 6 6 5 6 6 6 6 7 9 10 11 11 10 11 11 12 12 12 12 13 12 11 11 11 10 9 9 9 8 8 8 7 7 7 7 7 7 7 7 7 7 8 8
9 9 9 8 8 7 7 6 6 7 7 7 7 7 9 9 10 11 10 11 12 12 12 12 13 13 12 11 12 11 11 11 11 11 10 10 9 8 8 8 8 8 8 8 9 9 9 9 9
10 10 10 9 9 8 8 7 7 7 7 7 7 8 9 10 10 10 10 10 11 11 12 12 12 13 12 12 12 12 12 12 12 12 11 11 10 10 10 10 10 10 10 10 10 10 10 11 11